{"data":{"norad_id":69425,"intl_designator":"2026-126F","name":"STARLINK-37836","alt_names":[],"object_type":"PAYLOAD","status":"ACTIVE","operator":null,"country":"US","launch_date":"2026-06-07","launch_site_code":"AFWTR","launch_vehicle":null,"mission":null,"orbit_class":"UNKNOWN","rcs_meters":null,"size_class":null,"mass_kg":null,"dimensions":null,"purposes":["comms"],"wikipedia_slug":null,"has_3d_model":false,"image_url":null,"decayed_at":null,"tle_current":{"epoch":"2026-09-20T04:23:36.720096Z","epoch_age_seconds":52861,"freshness":"FRESH","line1":"1 69425U 26126F   26263.18306389  .00014297  00000+0  44427-3 0  9996","line2":"2 69425  97.2850 124.3925 0001552 101.9084 258.2333 15.33449611 17473","mean_motion":15.33449611,"eccentricity":0.0001552,"inclination_deg":97.285,"raan_deg":124.3925,"arg_perigee_deg":101.9084,"mean_anomaly_deg":258.2333,"bstar":0.00044427,"rev_number":1747,"period_min":93.905922285959,"perigee_km":464.46731838674,"apogee_km":466.5915924545,"semimajor_km":6843.6664554206,"source":"CELESTRAK","updated_at":"2026-09-20T09:00:44.195018Z"}}}